Terug naar catalogus

CZ-6A DEB

ActiefSSO
NORAD 54462·DEBRIS·🇨🇳 China

Gelanceerd Nov 11, 2022 vanaf Taiyuan Satellite Launch Center

Loading…

Volgende Passages (komende 24 uur)

TLE

VersSource: Space-Track

Epoch: Sep 14, 2026, 07:28 UTC

1 54462U 22151GN  26257.31156581  .00002804  00000-0  14380-2 0  9996
2 54462  98.7094 216.1405 0154292  53.6184 307.9109 14.10212066196322

Volg CZ-6A DEB in realtime met AllMySat

Download on the App Store